This is the latest recevied weather packets stored in our database for station/object WC4PEM-14. If no packets are shown the sender has not sent any weather packets the latest 1 day(s).
| Time | Temp. | Humidity | Pressure | Rain* | Wind** | Luminosity | Snow |
|---|---|---|---|---|---|---|---|
| 1777992023 | 27.22° C | 59% | 1015.9 hPa | 0 mm | 3.13 m/s, 103° | - | - |
| 1777991886 | 27.22° C | 59% | 1015.9 hPa | 0 mm | 3.13 m/s, 103° | - | - |
| 1777991732 | 27.22° C | 61% | 1015.8 hPa | 0 mm | 2.68 m/s, 93° | - | - |
| 1777991586 | 27.22° C | 61% | 1015.8 hPa | 0 mm | 2.68 m/s, 93° | - | - |
| 1777991286 | 26.67° C | 63% | 1015.9 hPa | 0 mm | 2.68 m/s, 96° | - | - |
| 1777991146 | 26.67° C | 63% | 1015.8 hPa | 0 mm | 3.13 m/s, 93° | - | - |
| 1777990986 | 26.67° C | 63% | 1015.8 hPa | 0 mm | 3.13 m/s, 93° | - | - |
| 1777990686 | 26.67° C | 64% | 1015.6 hPa | 0 mm | 3.58 m/s, 93° | - | - |
| 1777990500 | 26.11° C | 64% | 1015.6 hPa | 0 mm | 3.13 m/s, 93° | - | - |
| 1777990386 | 26.11° C | 64% | 1015.6 hPa | 0 mm | 3.13 m/s, 93° | - | - |
| 1777990086 | 26.11° C | 65% | 1015.5 hPa | 0 mm | 3.58 m/s, 93° | - | - |
| 1777989963 | 26.11° C | 66% | 1015.4 hPa | 0 mm | 3.58 m/s, 106° | - | - |
| 1777989786 | 26.11° C | 66% | 1015.4 hPa | 0 mm | 3.58 m/s, 106° | - | - |
| 1777989486 | 25.56° C | 66% | 1015.5 hPa | 0 mm | 3.58 m/s, 92° | - | - |
| 1777989186 | 25.56° C | 67% | 1015.6 hPa | 0 mm | 3.58 m/s, 101° | - | - |
| 1777988886 | 25.56° C | 68% | 1015.6 hPa | 0 mm | 4.02 m/s, 70° | - | - |
| 1777988730 | 25° C | 68% | 1015.6 hPa | 0 mm | 3.58 m/s, 101° | - | - |
| 1777988586 | 25° C | 68% | 1015.6 hPa | 0 mm | 3.58 m/s, 101° | - | - |
| 1777988428 | 25° C | 69% | 1015.6 hPa | 0 mm | 3.13 m/s, 93° | - | - |
| 1777988286 | 25° C | 69% | 1015.6 hPa | 0 mm | 3.13 m/s, 93° | - | - |
| 1777987986 | 25° C | 70% | 1015.6 hPa | 0 mm | 3.13 m/s, 101° | - | - |
| 1777987686 | 25° C | 71% | 1015.7 hPa | 0 mm | 3.58 m/s, 102° | - | - |
| 1777987591 | 24.44° C | 72% | 1015.5 hPa | 0 mm | 4.02 m/s, 93° | - | - |
| 1777987386 | 24.44° C | 72% | 1015.5 hPa | 0 mm | 4.02 m/s, 93° | - | - |
| 1777987086 | 24.44° C | 72% | 1015.6 hPa | 0 mm | 3.58 m/s, 96° | - | - |
* Rain latest hour (hover to see other rain measurements)
** Current wind speed in m/s (hover to see current wind gust speed)